Location: Peebles
(55.6412°N, 3.1714°W)
Time: 23:10:02
(UTC+00:00)

FENGYUN 1C DEB - Pass Details

Date: 07 February 2023
Orbit: 707 x 862 km, 98.5° (Epoch: 07 November)

Event Time Altitude Azimuth Distance (km) Brightness Sun altitude
Rises 17:27:54 0° 111° (ESE) 3,409 ? -4.5°
Reaches altitude 10° 17:30:49 10° 95° (E) 2,481 ? -4.9°
Maximum altitude 17:34:46 21° 49° (NE) 1,846 ? -5.4°
Drops below altitude 10° 17:38:42 10° 4° (N) 2,479 ? -5.9°
Sets 17:41:37 0° 349° (NNW) 3,406 ? -6.3°
